Flag Weather past 2 weeks in Strathcona County, Alberta, Canada

Now
18 °F

Clear.


Feels Like: 18 °F
Forecast: 0 / 19 °F
Wind: No wind

Location: Edmonton Municipal

Current Time: Nov 26, 2014 at 8:33:12 PM

Latest Report: Nov 26, 2014 at 7:00 PM


Visibility: 7 mi

Pressure: 30.23 "Hg

Humidity: 86%

Dew point: 14 °F

Location of Strathcona CountyLocation

Historic Weather in Strathcona County — Graph

°F

Strathcona County temperature yesterday

Maximum temperature yesterday: 25 °F (at 12:04 AM)
Minimum temperature yesterday: 14 °F (at 8:00 PM)
Average temperature yesterday: 19 °F

Past Weeks' High & Low Weather Summary

 TemperatureHumidityPressure
High43 °F (Nov 21, 1:00 PM)100% (Nov 12, 5:00 AM)30.90 "Hg (Nov 12, 5:00 AM)
Low-6 °F (Nov 14, 2:00 AM)55% (Nov 15, 6:00 PM)29.11 "Hg (Nov 22, 7:47 AM)
Average19 °F80%30.14 "Hg
* Reported Nov 11 7:00 PM — Nov 26 7:00 PM, Strathcona County, Weather by CustomWeather, © 2014

Note: Actual official high and low records may vary slightly from our data, if they occured in-between our weather recording intervals... More about our weather records

Advertising

Strathcona County weather history for previous 24 hours

 ConditionsComfort  
Time TempWeatherWind HumidityBarometerVisibility
7:00 PM
Nov 26
18 °FClear.No wind86%30.23 "Hg7 mi
6:00 PM18 °FClear.2 mph86%30.25 "Hg7 mi
5:00 PM18 °FClear.No wind86%30.26 "Hg7 mi
4:00 PM18 °FSunny.5 mph79%30.26 "Hg9 mi
3:00 PM19 °FSunny.No wind79%30.27 "Hg9 mi
2:00 PM21 °FSunny.3 mph74%30.27 "Hg9 mi
1:00 PM21 °FPassing clouds.2 mph74%30.28 "Hg9 mi
12:00 PM19 °FScattered clouds.3 mph79%30.29 "Hg9 mi
11:55 AM19 °FBroken clouds.3 mph79%30.16 "Hg9 mi
11:00 AM19 °FOvercast.5 mph79%30.31 "Hg9 mi
10:48 AM19 °FMostly cloudy.5 mph79%30.18 "Hg9 mi
10:00 AM19 °FOvercast.3 mph79%30.31 "Hg9 mi
9:00 AM19 °FOvercast.6 mph79%30.31 "Hg9 mi
8:00 AM19 °FOvercast.8 mph79%30.31 "Hg9 mi
7:47 AM18 °FOvercast.3 mph86%30.17 "Hg9 mi
7:00 AM18 °FMostly cloudy.5 mph86%30.30 "Hg9 mi
6:00 AM18 °FOvercast.6 mph79%30.30 "Hg9 mi
5:00 AM18 °FOvercast.3 mph86%30.32 "Hg9 mi
4:00 AM16 °FLight snow. Overcast.7 mph86%30.31 "Hg3 mi
3:59 AM16 °FLight snow. Overcast.7 mph86%30.17 "Hg3 mi
3:01 AM16 °FLight snow. Overcast.7 mph86%30.19 "Hg6 mi
2:00 AM14 °FMostly cloudy.7 mph85%30.32 "Hg9 mi
1:00 AM14 °FOvercast.6 mph85%30.33 "Hg9 mi
12:00 AM14 °FOvercast.6 mph79%30.33 "Hg9 mi
11:00 PM
Nov 25
14 °FMostly cloudy.7 mph79%30.33 "Hg9 mi
10:00 PM14 °FOvercast.7 mph79%30.32 "Hg9 mi
9:00 PM14 °FOvercast.5 mph85%30.31 "Hg9 mi
8:00 PM14 °FPassing clouds.5 mph79%30.31 "Hg9 mi
Weather by CustomWeather, © 2014

See weather overviewHow to use our weather pages